• MPC Preparation (Info)

  • MPEC 2005-B17 : 2005 BN1

    The following Minor Planet Electronic Circular may be linked-to from your own Web pages, but must not otherwise be redistributed electronically.

    A form allowing access to any MPEC is at the bottom of this page.


    Read MPEC 2005-B16 Read MPEC 2005-B18


    M.P.E.C. 2005-B17                                Issued 2005 Jan. 17, 23:57 UT
    
         The Minor Planet Electronic Circulars contain information on unusual
             minor planets and routine data on comets.  They are published
       on behalf of Commission 20 of the International Astronomical Union by the
              Minor Planet Center, Smithsonian Astrophysical Observatory,
                              Cambridge, MA 02138, U.S.A.
    
                      Supported in part by the Brinson Foundation
                 Prepared using the Tamkin Foundation Computer Network
    
                                  MPC@CFA.HARVARD.EDU
              URL http://cfa-www.harvard.edu/iau/mpc.html  ISSN 1523-6714
    
                                       2005 BN1
    
    Observations:
         K05B01N* C2005 01 16.35073 09 29 49.89 +23 31 35.1          19.0   EB017704
         K05B01N  C2005 01 16.36377 09 29 39.24 +23 29 30.7          18.6   EB017704
         K05B01N  C2005 01 16.37727 09 29 28.12 +23 27 21.1          19.4   EB017704
         K05B01N  C2005 01 16.39029 09 29 17.58 +23 25 16.2          19.2   EB017704
         K05B01N  C2005 01 16.40330 09 29 07.06 +23 23 11.5          18.8   EB017704
         K05B01N  C2005 01 17.34508 09 18 56.18 +21 09 42.1          19.3   EB017704
         K05B01N  C2005 01 17.34903 09 18 53.75 +21 09 12.1          19.2   EB017704
         K05B01N  C2005 01 17.34916 09 18 53.67 +21 09 10.8          18.9   EB017704
         K05B01N  C2005 01 17.35966 09 18 47.12 +21 07 51.3          19.3   EB017704
         K05B01N  C2005 01 17.36269 09 18 45.18 +21 07 28.9          19.1   EB017704
         K05B01N  C2005 01 17.36282 09 18 45.14 +21 07 27.8          18.9   EB017704
         K05B01N  C2005 01 17.37286 09 18 38.89 +21 06 11.5          19.1   EB017704
         K05B01N  C2005 01 17.37617 09 18 36.88 +21 05 46.7          20.0   EB017704
         K05B01N  C2005 01 17.37630 09 18 36.78 +21 05 45.5          19.6   EB017704
         K05B01N  C2005 01 17.38673 09 18 30.31 +21 04 26.5          19.3   EB017704
         K05B01N  C2005 01 17.38967 09 18 28.49 +21 04 04.1          19.0   EB017704
         K05B01N  C2005 01 17.38980 09 18 28.41 +21 04 03.2          19.0   EB017704
         K05B01N  C2005 01 17.39971 09 18 22.30 +21 02 48.1          18.9   EB017704
         K05B01N  C2005 01 17.40262 09 18 20.50 +21 02 26.4          19.3   EB017704
         K05B01N  C2005 01 17.40275 09 18 20.43 +21 02 25.1          19.3   EB017704
         K05B01N  C2005 01 17.94929 09 13 39.50 +19 57 34.3                 EB017246
         K05B01N  C2005 01 17.95130 09 13 38.43 +19 57 21.0                 EB017246
         K05B01N  C2005 01 17.95174 09 13 38.23 +19 57 17.7                 EB017246
         K05B01N  C2005 01 17.95252 09 13 37.84 +19 57 12.6                 EB017246
         K05B01N  C2005 01 17.95295 09 13 37.53 +19 57 09.7                 EB017246
         K05B01N  C2005 01 17.95368 09 13 37.17 +19 57 05.2                 EB017246
    
    Observer details:
    246 Klet Observatory-KLENOT.  Observer M. Tichy.  1.06-m KLENOT Telescope
        + CCD.
    704 Lincoln Laboratory ETS, New Mexico.  Observers M. Blythe, F. Shelly,
        M. Bezpalko, R. Huber, L. Manguso, D. Torres, R. Kracke, M. McCleary,
        H. Stange, A. Milner.  Measurers J. Stuart, R. Sayer, J. Evans, J. Kommers.
        1.0-m f/2.15 reflector + CCD.
    
    Orbital elements:
    2005 BN1
    Epoch 2005 Jan. 10.0 TT = JDT 2453380.5                 MPC
    M  17.14604              (2000.0)            P               Q
    n   0.41170037     Peri.  107.48617     +0.65919963     -0.74510051
    a   1.7895694      Node   300.83688     +0.63733113     +0.62516445
    e   0.5548600      Incl.    6.78188     +0.39908005     +0.23236746
    P   2.39           H   23.5           G   0.15
    From 26 observations 2005 Jan. 16-17.
    
    Ephemeris:
    2005 BN1                 a,e,i = 1.79, 0.55, 7                   q = 0.7966
    Date    TT    R. A. (2000) Decl.     Delta      r     Elong.  Phase     V
    2005 01 10    15 15.31   +46 17.9    0.024    0.983    88.6    90.0    18.6
    2005 01 11    13 25.46   +47 40.4    0.024    0.991   106.7    72.0    17.9
    2005 01 12    11 52.89   +43 28.9    0.027    0.998   122.9    55.8    17.7
    2005 01 13    10 52.83   +37 29.9    0.031    1.006   135.4    43.4    17.7
    2005 01 14    10 15.51   +32 07.0    0.037    1.014   144.5    34.3    17.8
    2005 01 15    09 51.23   +27 50.1    0.043    1.022   151.1    27.7    18.0
    2005 01 16    09 34.49   +24 31.0    0.050    1.030   156.0    22.8    18.2
    2005 01 17    09 22.37   +21 55.8    0.057    1.038   159.8    19.1    18.3
    2005 01 18    09 13.21   +19 53.2    0.065    1.046   162.8    16.1    18.5
    2005 01 19    09 06.06   +18 14.7    0.072    1.054   165.3    13.7    18.7
    2005 01 20    09 00.34   +16 54.3    0.080    1.062   167.3    11.7    18.9
    2005 01 21    08 55.65   +15 47.7    0.088    1.070   169.0    10.1    19.0
    2005 01 22    08 51.75   +14 52.0    0.096    1.079   170.4     8.8    19.2
    2005 01 23    08 48.44   +14 04.8    0.104    1.087   171.5     7.7    19.3
    2005 01 24    08 45.62   +13 24.4    0.112    1.095   172.4     6.8    19.5
    2005 01 25    08 43.17   +12 49.7    0.120    1.104   173.0     6.2    19.6
    2005 01 26    08 41.04   +12 19.5    0.128    1.112   173.3     5.9    19.7
    2005 01 27    08 39.17   +11 53.3    0.137    1.120   173.4     5.8    19.9
    2005 01 28    08 37.52   +11 30.3    0.145    1.129   173.2     6.0    20.0
    2005 01 29    08 36.05   +11 10.0    0.153    1.137   172.8     6.3    20.2
    2005 01 30    08 34.75   +10 52.2    0.162    1.146   172.2     6.7    20.3
    2005 01 31    08 33.59   +10 36.4    0.171    1.154   171.5     7.2    20.5
    2005 02 01    08 32.55   +10 22.4    0.179    1.163   170.8     7.8    20.7
    2005 02 02    08 31.63   +10 09.9    0.188    1.171   169.9     8.5    20.8
    2005 02 03    08 30.81   +09 58.8    0.197    1.180   169.1     9.1    20.9
    2005 02 04    08 30.08   +09 49.0    0.206    1.188   168.2     9.8    21.1
    2005 02 05    08 29.43   +09 40.2    0.215    1.197   167.3    10.4    21.2
    2005 02 06    08 28.86   +09 32.4    0.225    1.206   166.4    11.1    21.4
    2005 02 07    08 28.37   +09 25.4    0.234    1.214   165.5    11.8    21.5
    2005 02 08    08 27.94   +09 19.2    0.243    1.223   164.5    12.4    21.6
    2005 02 09    08 27.58   +09 13.6    0.253    1.231   163.6    13.1    21.7
    
    Timothy B. Spahr             (C) Copyright 2005 MPC           M.P.E.C. 2005-B17
    

    Read MPEC 2005-B16 Read MPEC 2005-B18


    MPEC number:

    Enter an MPEC number in one of the following forms:

    • 1997-B01 (the full form)
    • J97B01 (the packed version of the full form)
    • B01 (the abbreviated form)